1507960800.43,55151,10.0,74418.3,1.47,-25.23,-26.33,0,*78
1507960801.68,55152,10.0,74416.0,1.47,-25.23,-26.33,0,*7B
1507960802.91,55153,10.0,74418.0,1.49,-25.19,-26.33,0,*7D
1507960804.16,55154,10.0,74418.0,1.47,-25.19,-26.33,0,*74
1507960805.41,55155,10.0,74422.0,1.47,-25.19,-26.33,0,*75
1507960806.64,55156,10.0,74418.3,1.49,-25.23,-26.33,0,*71
1507960807.84,55157,10.0,74416.0,1.49,-25.35,-26.39,0,*7D
1507960809.04,55158,10.0,74414.3,1.49,-25.19,-26.39,0,*7C
1507960810.25,55159,10.0,74416.0,1.49,-25.19,-26.39,0,*7D
1507960811.45,55160,10.0,74416.8,1.49,-25.19,-26.39,0,*77
1507960812.65,55161,10.0,74418.0,1.49,-25.09,-26.39,0,*77
1507960813.85,55162,10.0,74418.8,1.49,-25.19,-26.45,0,*7E
1507960815.05,55163,10.0,74410.3,1.49,-25.19,-26.39,0,*74
1507960816.27,55164,10.0,74410.8,1.49,-25.19,-26.33,0,*79
1507960817.48,55165,10.0,74408.5,1.49,-25.19,-26.39,0,*72
1507960818.73,55166,10.0,74412.3,1.51,-25.13,-26.33,0,*78
1507960819.94,55167,10.0,74416.0,1.49,-25.19,-26.39,0,*70
1507960821.14,55168,10.0,74410.3,1.49,-25.09,-26.39,0,*7E
1507960822.34,55169,10.0,74400.5,1.49,-25.19,-26.39,0,*7E
1507960823.54,55170,10.0,74410.3,1.49,-25.09,-26.39,0,*77
1507960824.77,55171,10.0,74408.0,1.49,-25.09,-26.33,0,*7C
1507960826.0,55172,10.0,74400.5,1.49,-25.19,-26.33,0,*7E
1507960827.28,55173,10.0,74402.0,1.51,-25.03,-26.17,0,*7B
1507960828.5,55174,10.0,74402.3,1.49,-25.09,-26.33,0,*79
1507960829.73,55175,10.0,74398.3,1.49,-25.19,-26.33,0,*79
1507960830.99,55176,10.0,74406.5,1.51,-25.13,-26.17,0,*7F
1507960832.26,55177,10.0,74408.8,1.51,-25.03,-26.17,0,*7F
1507960833.52,55178,10.0,74406.0,1.51,-25.13,-26.29,0,*7C
1507960834.78,55179,10.0,74408.5,1.51,-25.13,-26.29,0,*7D
1507960836.06,55180,10.0,74408.5,1.51,-25.03,-26.29,0,*7A
1507960837.31,55181,10.0,74410.0,1.51,-24.97,-26.29,0,*77
1507960838.57,55182,10.0,74410.8,1.49,-25.03,-26.33,0,*7A
1507960839.85,55183,10.0,74408.5,1.51,-25.03,-26.13,0,*70
1507960841.13,55184,10.0,74408.5,1.51,-25.03,-26.29,0,*7E
1507960842.38,55185,10.0,74408.3,1.51,-24.97,-26.17,0,*7E
1507960843.66,55186,10.0,74412.3,1.51,-25.03,-26.17,0,*71
1507960844.91,55187,10.0,74408.3,1.51,-24.97,-26.17,0,*7C
1507960846.16,55188,10.0,74408.5,1.51,-24.97,-26.29,0,*7E
1507960847.44,55189,10.0,74408.0,1.51,-24.87,-26.13,0,*77
1507960848.69,55190,10.0,74412.3,1.51,-24.97,-26.17,0,*7A
1507960849.95,55191,10.0,74414.8,1.51,-24.97,-26.13,0,*7F
1507960851.2,55192,10.0,74414.8,1.51,-24.97,-25.97,0,*73
1507960852.45,55193,10.0,74414.0,1.51,-24.97,-26.13,0,*7D
1507960853.68,55194,10.0,74416.5,1.53,-24.97,-26.13,0,*78
1507960854.88,55195,10.0,74418.8,1.53,-24.93,-26.07,0,*78
1507960856.1,55196,10.0,74414.3,1.53,-24.93,-26.13,0,*7E
1507960857.35,55197,10.0,74418.3,1.51,-24.97,-26.17,0,*7D
1507960858.63,55198,10.0,74414.8,1.51,-25.03,-26.17,0,*7E
1507960859.82,55199,10.0,74412.3,1.53,-24.93,-26.07,0,*74
1507960861.04,55200,10.0,74410.3,1.55,-24.93,-26.07,0,*71
1507960862.24,55201,10.0,74414.0,1.53,-24.97,-26.07,0,*72
1507960863.5,55202,10.0,74416.0,1.55,-25.09,-26.13,0,*74
1507960864.72,55203,10.0,74410.3,1.53,-24.97,-26.13,0,*75
1507960865.95,55204,10.0,74416.0,1.53,-24.97,-26.13,0,*72
1507960867.18,55205,10.0,74414.8,1.53,-24.97,-26.13,0,*73
1507960868.37,55206,10.0,74408.8,1.53,-24.97,-26.23,0,*73
1507960869.6,55207,10.0,74414.5,1.55,-25.09,-26.23,0,*72
1507960870.85,55208,10.0,74410.3,1.55,-24.97,-26.13,0,*78
1507960872.1,55209,10.0,74410.8,1.55,-24.93,-26.13,0,*7D
1507960873.29,55210,10.0,74414.0,1.53,-24.93,-26.07,0,*76
1507960874.52,55211,10.0,74414.0,1.53,-24.97,-26.13,0,*76
1507960875.77,55212,10.0,74410.8,1.55,-24.93,-26.13,0,*77
1507960876.99,55213,10.0,74410.0,1.55,-24.93,-26.07,0,*73
1507960878.24,55214,10.0,74408.5,1.55,-24.93,-26.13,0,*71
1507960879.49,55215,10.0,74408.5,1.55,-24.97,-26.13,0,*74
1507960880.72,55216,10.0,74408.8,1.53,-25.09,-26.13,0,*77
1507960881.91,55217,10.0,74410.5,1.53,-24.93,-26.23,0,*77
1507960883.16,55218,10.0,74408.0,1.55,-24.93,-26.13,0,*7D
1507960884.38,55219,10.0,74408.3,1.53,-25.09,-26.13,0,*78
1507960885.58,55220,10.0,74414.5,1.53,-24.97,-26.23,0,*77
1507960886.84,55221,10.0,74412.5,1.55,-25.09,-26.13,0,*75
1507960888.06,55222,10.0,74402.8,1.55,-24.97,-26.23,0,*73
1507960889.28,55223,10.0,74404.0,1.55,-25.09,-26.23,0,*74
1507960890.53,55224,10.0,74410.0,1.55,-24.93,-26.13,0,*72
1507960891.78,55225,10.0,74404.3,1.55,-24.93,-26.13,0,*73
1507960893.0,55226,10.0,74414.3,1.55,-25.09,-26.23,0,*71
1507960894.23,55227,10.0,74412.0,1.55,-24.97,-26.23,0,*76
1507960895.48,55228,10.0,74412.0,1.55,-24.97,-26.13,0,*7A
1507960896.74,55229,10.0,74412.0,1.55,-24.97,-26.13,0,*7B
1507960897.96,55230,10.0,74410.8,1.55,-24.93,-26.07,0,*72
1507960899.18,55231,10.0,74410.3,1.55,-24.93,-26.07,0,*73
1507960900.44,55232,10.0,74408.0,1.55,-24.83,-26.07,0,*71
1507960901.63,55233,10.0,74408.3,1.53,-24.93,-26.07,0,*77
1507960902.89,55234,10.0,74408.5,1.55,-24.83,-26.07,0,*77
1507960904.14,55235,10.0,74404.5,1.55,-24.93,-26.13,0,*72
1507960905.39,55236,10.0,74406.8,1.55,-24.97,-26.13,0,*75
1507960906.65,55237,10.0,74412.5,1.55,-24.97,-26.13,0,*74
1507960907.87,55238,10.0,74410.5,1.55,-25.09,-26.23,0,*7E
1507960909.1,55239,10.0,74408.5,1.55,-25.09,-26.23,0,*7F
1507960910.32,55240,10.0,74408.3,1.55,-25.09,-26.23,0,*71
1507960911.52,55241,10.0,74402.3,1.57,-25.09,-26.23,0,*72
1507960912.74,55242,10.0,74402.3,1.57,-25.03,-26.23,0,*7B
1507960913.99,55243,10.0,74400.5,1.55,-25.13,-26.29,0,*73
1507960915.25,55244,10.0,74400.5,1.55,-25.09,-26.33,0,*74
1507960916.47,55245,10.0,74398.3,1.57,-25.19,-26.29,0,*7D
1507960917.69,55246,10.0,74398.8,1.57,-25.19,-26.29,0,*7E
1507960918.89,55247,10.0,74406.3,1.57,-25.09,-26.23,0,*74
1507960920.11,55248,10.0,74404.5,1.57,-25.23,-26.29,0,*79
1507960921.3,55249,10.0,74400.0,1.57,-25.09,-26.23,0,*7A
1507960922.53,55250,10.0,74396.5,1.57,-25.03,-26.23,0,*78
1507960923.75,55251,10.0,74398.8,1.57,-25.09,-26.29,0,*79
1507960925.0,55252,10.0,74400.0,1.57,-25.29,-26.29,0,*78
1507960926.19,55253,10.0,74408.3,1.57,-25.23,-26.23,0,*79
1507960927.38,55254,10.0,74404.5,1.57,-25.19,-26.23,0,*77
1507960928.61,55255,10.0,74408.5,1.57,-25.03,-26.23,0,*7D
1507960929.86,55256,10.0,74404.8,1.59,-24.87,-26.07,0,*7B
1507960931.08,55257,10.0,74420.3,1.57,-24.87,-26.07,0,*74
1507960932.3,55258,10.0,74412.3,1.57,-24.93,-26.17,0,*7F
1507960933.51,55259,10.0,74412.8,1.57,-24.93,-26.17,0,*7E
1507960934.79,55260,10.0,74410.5,1.59,-25.03,-26.17,0,*72
1507960935.98,55261,10.0,74406.0,1.57,-24.93,-26.07,0,*74
1507960937.21,55262,10.0,74406.5,1.59,-24.93,-26.03,0,*7D
1507960938.46,55263,10.0,74412.3,1.59,-24.87,-26.07,0,*7D
1507960939.72,55264,10.0,74410.3,1.59,-24.87,-26.07,0,*7A
1507960940.98,55265,10.0,74408.8,1.59,-24.87,-26.03,0,*7F
1507960942.23,55266,10.06,74410.5,1.61,-24.83,-25.97,0,*7D
1507960943.46,55267,10.0,74412.3,1.61,-24.97,-26.13,0,*76
1507960944.69,55268,10.0,74414.0,1.61,-24.87,-26.03,0,*79
1507960945.95,55269,10.0,74408.5,1.59,-24.87,-26.07,0,*77
1507960947.2,55270,10.0,74414.8,1.59,-24.87,-26.07,0,*7F
1507960948.44,55271,10.0,74408.0,1.59,-24.77,-26.03,0,*75
1507960949.69,55272,10.0,74404.5,1.59,-24.87,-25.91,0,*71
1507960950.95,55273,10.0,74402.5,1.59,-24.87,-26.03,0,*78
1507960952.21,55274,10.0,74402.5,1.61,-24.83,-25.97,0,*7E
1507960953.46,55275,10.0,74404.3,1.61,-24.87,-25.97,0,*7B
1507960954.71,55276,10.0,74420.0,1.65,-24.83,-25.97,0,*78
1507960955.94,55277,10.0,74412.3,1.61,-24.83,-25.87,0,*7C
1507960957.17,55278,10.0,74402.5,1.61,-24.83,-25.87,0,*73
1507960958.42,55279,10.0,74398.0,1.65,-24.67,-25.81,0,*7A
1507960959.65,55280,10.0,74400.5,1.61,-24.67,-25.87,0,*7E
1507960960.87,55281,10.0,74408.8,1.65,-24.61,-25.81,0,*7B
1507960962.1,55282,10.0,74414.3,1.65,-24.71,-25.87,0,*7F
1507960963.33,55283,10.0,74412.0,1.65,-24.77,-25.97,0,*79
1507960964.56,55284,10.0,74412.0,1.61,-24.97,-25.97,0,*74
1507960965.77,55285,10.0,74406.8,1.65,-24.67,-25.91,0,*78
1507960967.02,55286,10.0,74408.3,1.65,-24.67,-25.81,0,*7A
1507960968.29,55287,10.0,74410.5,1.69,-24.71,-25.75,0,*7B
1507960969.56,55288,10.0,74408.5,1.67,-24.67,-25.81,0,*76
1507960970.81,55289,10.0,74410.3,1.67,-24.77,-25.81,0,*76
1507960972.04,55290,10.0,74412.5,1.69,-24.61,-25.71,0,*78
1507960973.32,55291,10.0,74412.3,1.67,-24.67,-25.75,0,*75
1507960974.55,55292,10.0,74412.3,1.69,-24.61,-25.71,0,*7A
1507960975.78,55293,10.0,74412.5,1.67,-24.61,-25.65,0,*70
1507960977.01,55294,10.0,74418.0,1.67,-24.61,-25.65,0,*77
1507960978.24,55295,10.0,74414.5,1.69,-24.57,-25.71,0,*78
1507960979.47,55296,10.0,74418.0,1.67,-24.61,-25.65,0,*75
1507960980.7,55297,10.0,74420.0,1.69,-24.57,-25.71,0,*7A
1507960981.91,55298,10.0,74408.8,1.69,-24.57,-25.61,0,*74
1507960983.14,55299,10.0,74408.8,1.69,-24.57,-25.75,0,*70
1507960984.4,55300,10.0,74412.3,1.71,-24.57,-25.71,0,*7C
1507960985.62,55301,10.0,74410.3,1.71,-24.61,-25.87,0,*71
1507960986.85,55302,10.0,74406.0,1.71,-24.61,-25.87,0,*72
1507960988.11,55303,10.0,74400.0,1.71,-24.71,-25.87,0,*72
1507960989.37,55304,10.06,74406.0,1.71,-24.61,-25.75,0,*79
1507960990.63,55305,10.0,74414.8,1.73,-24.51,-25.71,0,*7D
1507960991.89,55306,10.0,74414.8,1.71,-24.57,-25.71,0,*7A
1507960993.18,55307,10.06,74408.8,1.73,-24.25,-25.55,0,*7A
1507960994.46,55308,10.0,74404.5,1.73,-24.67,-25.71,0,*75
1507960995.73,55309,10.0,74406.8,1.73,-24.67,-25.81,0,*7B
1507960996.99,55310,10.06,74410.0,1.73,-24.71,-25.87,0,*72
1507960998.23,55311,10.0,74404.5,1.75,-24.57,-25.71,0,*78
1507960999.44,55312,10.06,74406.5,1.75,-24.57,-25.65,0,*7E
1507961000.67,55313,10.0,74404.0,1.73,-24.57,-25.65,0,*79
1507961001.9,55314,10.0,74408.0,1.73,-24.57,-25.65,0,*7E
1507961003.16,55315,10.0,74404.8,1.73,-24.57,-25.71,0,*7A
1507961004.39,55316,10.0,74404.8,1.75,-24.57,-25.55,0,*79
1507961005.6,55317,10.0,74404.3,1.75,-24.57,-25.65,0,*7B
1507961006.85,55318,10.06,74408.0,1.77,-24.51,-25.61,0,*74
1507961008.06,55319,10.0,74412.5,1.75,-24.51,-25.65,0,*73
1507961009.31,55320,10.0,74408.8,1.77,-24.51,-25.65,0,*7B
1507961010.55,55321,10.06,74400.8,1.77,-24.51,-25.65,0,*7A
1507961011.79,55322,10.06,74408.3,1.77,-24.47,-25.65,0,*7E
1507961013.02,55323,10.0,74418.0,1.75,-24.57,-25.81,0,*76
1507961014.28,55324,10.0,74414.3,1.77,-24.61,-25.75,0,*7D
1507961015.53,55325,10.06,74414.0,1.77,-24.47,-25.61,0,*7D
1507961016.75,55326,10.0,74408.8,1.79,-24.47,-25.61,0,*70
1507961017.98,55327,10.0,74404.5,1.79,-24.47,-25.45,0,*77
1507961019.2,55328,10.0,74400.0,1.79,-24.51,-25.65,0,*7D
1507961020.42,55329,10.0,74400.3,1.79,-24.51,-25.61,0,*78
1507961021.68,55330,10.0,74392.5,1.81,-24.57,-25.71,0,*70
1507961022.94,55331,10.0,74388.3,1.81,-24.31,-25.55,0,*77
1507961024.18,55332,10.0,74400.5,1.79,-24.51,-25.75,0,*77
1507961025.4,55333,10.0,74408.0,1.81,-24.61,-25.87,0,*7F
1507961026.67,55334,10.0,74414.0,1.81,-24.47,-25.71,0,*75
1507961027.92,55335,10.06,74410.5,1.81,-24.61,-25.75,0,*74
1507961029.18,55336,10.0,74396.3,1.81,-24.31,-25.75,0,*72
1507961030.39,55337,10.0,74400.0,1.83,-24.51,-25.65,0,*76
1507961031.67,55338,10.06,74402.5,1.85,-24.67,-25.81,0,*70
1507961032.92,55339,10.0,74400.3,1.83,-24.83,-25.81,0,*7D
1507961034.18,55340,10.06,74404.0,1.81,-24.57,-25.75,0,*73
1507961035.39,55341,10.0,74406.0,1.83,-24.51,-25.65,0,*77
1507961036.66,55342,10.06,74410.8,1.83,-24.41,-25.71,0,*70
1507961037.87,55343,10.0,74410.0,1.83,-24.51,-25.65,0,*75
1507961039.13,55344,10.06,74412.5,1.83,-24.41,-25.55,0,*70
1507961040.37,55345,10.0,74414.8,1.85,-24.51,-25.65,0,*75
1507961041.62,55346,10.0,74416.5,1.85,-24.71,-25.87,0,*78
1507961042.88,55347,10.0,74418.3,1.85,-24.41,-25.65,0,*76
1507961044.17,55348,10.0,74408.5,1.85,-24.41,-25.71,0,*7C
1507961045.4,55349,10.06,74406.5,1.85,-24.57,-25.65,0,*7F
1507961046.68,55350,10.0,74404.3,1.85,-24.67,-25.81,0,*7E
1507961047.95,55351,10.0,74404.5,1.85,-24.67,-25.71,0,*70
1507961049.22,55352,10.0,74404.8,1.85,-24.51,-25.55,0,*70
1507961050.45,55353,10.0,74402.8,1.89,-24.35,-25.49,0,*72
1507961051.69,55354,10.06,74410.3,1.89,-24.35,-25.49,0,*75
1507961052.93,55355,10.0,74408.5,1.89,-24.47,-25.61,0,*7B
1507961054.17,55356,10.0,74414.5,1.89,-24.47,-25.49,0,*72
1507961055.38,55357,10.0,74414.8,1.91,-24.31,-25.49,0,*7B
1507961056.62,55358,10.06,74420.3,1.89,-24.35,-25.61,0,*73
1507961057.83,55359,10.0,74418.8,1.91,-24.47,-25.65,0,*7A
1507961059.07,55360,10.0,74410.8,1.91,-24.51,-25.75,0,*76
1507961060.29,55361,10.0,74416.8,1.91,-24.51,-25.61,0,*72
1507961061.5,55362,10.0,74412.8,1.91,-24.61,-25.65,0,*76
1507961062.72,55363,10.06,74404.0,1.91,-24.47,-25.65,0,*73
1507961063.98,55364,10.06,74410.3,1.93,-24.47,-25.71,0,*73
1507961065.24,55365,10.06,74416.5,1.93,-24.77,-25.81,0,*7E
1507961066.52,55366,10.06,74404.5,1.93,-24.83,-25.81,0,*76
1507961067.78,55367,10.06,74408.0,1.93,-24.61,-25.75,0,*70
1507961069.04,55368,10.06,74408.3,1.93,-24.61,-25.75,0,*7F
1507961070.28,55369,10.06,74412.0,1.93,-24.47,-25.61,0,*7F
1507961071.49,55370,10.0,74412.3,1.95,-24.47,-25.61,0,*71
1507961072.73,55371,10.06,74408.8,1.95,-24.31,-25.55,0,*76
1507961073.95,55372,10.06,74410.8,1.95,-24.31,-25.61,0,*72
1507961075.18,55373,10.06,74410.5,1.95,-24.57,-25.71,0,*72
1507961076.41,55374,10.06,74414.3,1.95,-24.61,-25.75,0,*74
1507961077.68,55375,10.0,74418.3,1.95,-24.71,-25.75,0,*74
1507961078.91,55376,10.06,74408.3,1.95,-24.77,-25.81,0,*7A
1507961080.17,55377,10.0,74412.5,1.97,-24.51,-25.55,0,*74
1507961081.43,55378,10.06,74416.5,1.97,-24.41,-25.65,0,*79
1507961082.64,55379,10.06,74422.8,1.99,-24.47,-25.61,0,*74
1507961083.88,55380,10.06,74412.5,1.97,-24.51,-25.65,0,*7F
1507961085.09,55381,10.06,74412.3,1.99,-24.35,-25.61,0,*76
1507961086.35,55382,10.06,74418.5,1.97,-24.25,-25.39,0,*77
1507961087.56,55383,10.0,74408.0,1.99,-24.61,-25.61,0,*75
1507961088.77,55384,10.06,74410.8,1.99,-24.57,-25.65,0,*73
1507961090.03,55385,10.06,74416.3,2.01,-24.35,-25.71,0,*71
1507961091.27,55386,10.06,74418.0,2.01,-24.51,-25.65,0,*75
1507961092.5,55387,10.06,74414.8,1.99,-24.67,-25.65,0,*73
1507961093.73,55388,10.06,74410.3,2.01,-24.51,-25.65,0,*7B
1507961094.97,55389,10.06,74416.8,2.01,-24.35,-25.61,0,*7C
1507961096.19,55390,10.06,74420.8,2.03,-24.51,-25.61,0,*74
1507961097.48,55391,10.0,74418.5,2.01,-24.71,-25.71,0,*74
1507961098.74,55392,10.06,74418.3,2.01,-24.61,-25.71,0,*76
1507961099.96,55393,10.06,74418.5,2.03,-24.47,-25.61,0,*70
1507961101.2,55394,10.06,74412.8,2.01,-24.47,-25.49,0,*7F
1507961102.47,55395,10.06,74416.5,2.03,-24.41,-25.55,0,*77
1507961103.71,55396,10.06,74414.3,2.01,-24.51,-25.65,0,*74
1507961104.92,55397,10.06,74414.5,2.03,-24.57,-25.61,0,*75
1507961106.15,55398,10.06,74416.8,2.01,-24.35,-25.61,0,*7C
1507961107.42,55399,10.06,74418.8,2.03,-24.41,-25.55,0,*7B
1507961108.63,55400,10.06,74422.5,2.03,-24.61,-25.61,0,*79
1507961109.84,55401,10.06,74422.0,2.03,-24.61,-25.65,0,*7C
1507961111.05,55402,10.06,74422.0,2.03,-24.61,-25.65,0,*7F
1507961112.31,55403,10.06,74420.5,2.05,-24.31,-25.45,0,*7F
1507961113.58,55404,10.06,74416.0,2.05,-24.31,-25.55,0,*79
1507961114.84,55405,10.06,74418.3,2.05,-24.47,-25.55,0,*79
1507961116.08,55406,10.06,74422.0,2.05,-24.57,-25.61,0,*7C
1507961117.31,55407,10.06,74426.3,2.07,-24.41,-25.61,0,*78
1507961118.57,55408,10.06,74418.5,2.05,-24.61,-25.75,0,*72
1507961119.81,55409,10.06,74412.3,2.05,-24.47,-25.61,0,*72
1507961121.05,55410,10.06,74412.8,2.07,-24.51,-25.55,0,*78
1507961122.31,55411,10.06,74412.0,2.07,-24.41,-25.55,0,*78
1507961123.52,55412,10.06,74410.3,2.07,-24.35,-25.49,0,*75
1507961124.73,55413,10.06,74414.5,2.07,-24.51,-25.49,0,*76
1507961125.96,55414,10.06,74418.3,2.07,-24.57,-25.71,0,*7C
1507961127.18,55415,10.06,74418.3,2.07,-24.51,-25.49,0,*70
1507961128.41,55416,10.06,74416.3,2.11,-24.31,-25.45,0,*7E
1507961129.7,55417,10.06,74416.0,2.13,-24.21,-25.29,0,*76
1507961130.93,55418,10.06,74418.3,2.11,-24.47,-25.45,0,*71
1507961132.19,55419,10.06,74418.3,2.13,-24.21,-25.35,0,*75
1507961133.45,55420,10.06,74414.0,2.13,-24.21,-25.35,0,*7F
1507961134.71,55421,10.06,74412.0,2.13,-24.31,-25.45,0,*78
1507961135.98,55422,10.06,74416.8,2.17,-24.15,-25.29,0,*73
1507961137.22,55423,10.06,74416.0,2.15,-24.25,-25.39,0,*72
1507961138.49,55424,10.0,74412.0,2.17,-24.25,-25.39,0,*77
1507961139.76,55425,10.06,74418.3,2.17,-24.15,-25.29,0,*74
1507961141.04,55426,10.06,74416.5,2.17,-24.15,-25.29,0,*77
1507961142.27,55427,10.06,74412.0,2.19,-24.21,-25.23,0,*75
1507961143.5,55428,10.06,74414.8,2.19,-24.21,-25.23,0,*7A
1507961144.73,55429,10.06,74416.8,2.19,-24.11,-25.19,0,*71
1507961145.99,55430,10.06,74418.5,2.21,-23.99,-25.13,0,*7F
1507961147.22,55431,10.06,74416.3,2.19,-24.11,-25.35,0,*76
1507961148.45,55432,10.06,74420.0,2.19,-24.21,-25.35,0,*76
1507961149.68,55433,10.06,74416.5,2.21,-24.35,-25.35,0,*79
1507961150.89,55434,10.06,74416.0,2.19,-24.35,-25.39,0,*79
1507961152.15,55435,10.06,74418.8,2.21,-24.21,-25.35,0,*7A
1507961153.39,55436,10.06,74422.8,2.21,-24.31,-25.35,0,*78
1507961154.63,55437,10.06,74418.0,2.21,-24.35,-25.39,0,*71
1507961155.83,55438,10.0,74416.3,2.23,-24.31,-25.35,0,*74
1507961157.07,55439,10.06,74418.5,2.23,-24.21,-25.35,0,*74
1507961158.27,55440,10.06,74416.5,2.23,-24.31,-25.35,0,*7B
1507961159.51,55441,10.06,74418.5,2.23,-24.21,-25.35,0,*7B
1507961160.74,55442,10.06,74416.5,2.23,-24.21,-25.35,0,*78
1507961162.01,55443,10.06,74418.5,2.25,-24.15,-25.29,0,*75
1507961163.27,55444,10.06,74424.5,2.25,-24.15,-25.23,0,*78
1507961164.5,55445,10.06,74420.5,2.25,-24.35,-25.35,0,*7C
1507961165.73,55446,10.06,74416.8,2.27,-24.15,-25.35,0,*7F
1507961166.99,55447,10.06,74416.8,2.27,-24.25,-25.29,0,*70
1507961168.28,55448,10.06,74418.8,2.25,-24.25,-25.29,0,*7D
1507961169.56,55449,10.06,74416.5,2.25,-24.15,-25.29,0,*7F
1507961170.81,55450,10.06,74422.5,2.27,-24.15,-25.29,0,*75
1507961172.04,55451,10.06,74418.3,2.29,-24.05,-25.13,0,*72
1507961173.27,55452,10.06,74418.3,2.27,-24.11,-25.23,0,*79
1507961174.5,55453,10.06,74418.0,2.27,-24.11,-25.23,0,*78
1507961175.78,55454,10.06,74416.0,2.29,-24.21,-25.29,0,*78
1507961177.07,55455,10.06,74416.0,2.33,-24.21,-25.29,0,*72
1507961178.35,55456,10.06,74418.5,2.33,-24.25,-25.45,0,*7F
1507961179.6,55457,10.06,74422.5,2.33,-24.11,-25.23,0,*79
1507961180.83,55458,10.06,74416.0,2.29,-24.05,-25.23,0,*78
1507961182.07,55459,10.06,74420.0,2.33,-24.31,-25.39,0,*7E
1507961183.3,55460,10.06,74416.0,2.35,-24.21,-25.19,0,*71
1507961184.53,55461,10.06,74420.5,2.35,-23.99,-25.13,0,*7E
1507961185.79,55462,10.06,74422.3,2.33,-24.21,-25.19,0,*75
1507961187.02,55463,10.06,74420.5,2.35,-24.25,-25.35,0,*78
1507961188.25,55464,10.06,74416.0,2.35,-24.21,-25.39,0,*77
1507961189.46,55465,10.06,74418.0,2.35,-24.05,-25.19,0,*72
1507961190.66,55466,10.06,74420.8,2.35,-24.05,-25.19,0,*71
1507961191.89,55467,10.06,74422.3,2.37,-24.15,-25.23,0,*7A
1507961193.1,55468,10.06,74420.5,2.37,-24.05,-25.19,0,*7D
1507961194.33,55469,10.06,74420.3,2.37,-23.99,-25.13,0,*74
1507961195.59,55470,10.0,74420.0,2.39,-23.95,-25.09,0,*75
1507961196.82,55471,10.06,74418.5,2.37,-23.99,-25.09,0,*76
1507961198.08,55472,10.06,74422.0,2.39,-23.95,-25.09,0,*77
1507961199.34,55473,10.06,74422.5,2.39,-23.95,-25.09,0,*76
1507961200.59,55474,10.06,74422.5,2.41,-24.15,-25.29,0,*73
1507961201.83,55475,10.06,74416.8,2.41,-24.11,-25.13,0,*7F
1507961203.06,55476,10.06,74424.0,2.41,-23.95,-25.09,0,*7C
1507961204.28,55477,10.06,74420.0,2.41,-24.05,-25.13,0,*78
1507961205.54,55478,10.06,74418.8,2.43,-23.95,-25.09,0,*70
1507961206.8,55479,10.06,74422.8,2.43,-23.95,-25.13,0,*7A
1507961208.03,55480,10.06,74420.5,2.43,-24.05,-25.13,0,*72
1507961209.27,55481,10.06,74420.3,2.43,-23.89,-25.09,0,*7B
1507961210.5,55482,10.06,74422.3,2.45,-24.11,-25.09,0,*78
1507961211.73,55483,10.06,74422.0,2.45,-24.05,-25.03,0,*76
1507961212.99,55484,10.06,74422.0,2.45,-23.99,-25.03,0,*73
1507961214.22,55485,10.06,74426.0,2.45,-23.99,-25.09,0,*78
1507961215.47,55486,10.06,74422.5,2.47,-24.11,-25.19,0,*7F
1507961216.72,55487,10.06,74422.3,2.47,-23.99,-25.19,0,*79
1507961217.96,55488,10.06,74422.5,2.47,-24.05,-25.09,0,*75
1507961219.17,55489,10.06,74420.3,2.45,-24.05,-25.09,0,*76
1507961220.4,55490,10.06,74424.0,2.49,-23.99,-25.13,0,*7B
1507961221.62,55491,10.06,74422.5,2.49,-24.15,-25.19,0,*73
1507961222.87,55492,10.06,74420.3,2.51,-24.15,-25.19,0,*79
1507961224.1,55493,10.06,74420.8,2.49,-24.15,-25.35,0,*7F
1507961225.3,55494,10.06,74422.5,2.49,-24.05,-25.19,0,*77
1507961226.53,55495,10.06,74420.3,2.51,-24.05,-25.19,0,*7F
1507961227.76,55496,10.06,74422.0,2.51,-24.05,-25.19,0,*7C
1507961229.01,55497,10.06,74420.3,2.51,-24.15,-25.35,0,*72
1507961230.21,55498,10.06,74422.3,2.57,-24.05,-25.23,0,*7D
1507961231.44,55499,10.06,74422.8,2.53,-23.99,-25.13,0,*79
1507961232.67,55500,10.06,74424.8,2.53,-24.31,-25.45,0,*7E
1507961233.91,55501,10.06,74424.0,2.53,-24.21,-25.39,0,*75
1507961235.13,55502,10.06,74424.0,2.53,-24.15,-25.23,0,*7A
1507961236.34,55503,10.06,74424.3,2.57,-24.05,-25.19,0,*77
1507961237.59,55504,10.06,74424.0,2.53,-24.15,-25.29,0,*76
1507961238.81,55505,10.06,74424.5,2.57,-24.15,-25.23,0,*79
1507961240.04,55506,10.06,74420.5,2.57,-24.11,-25.23,0,*7E
1507961241.24,55507,10.06,74424.0,2.57,-24.05,-25.19,0,*73
1507961242.47,55508,10.06,74424.3,2.57,-24.11,-25.23,0,*70
1507961243.73,55509,10.06,74424.3,2.57,-24.25,-25.55,0,*77
1507961244.99,55510,10.06,74426.3,2.57,-24.25,-25.55,0,*7F
1507961246.25,55511,10.06,74420.8,2.59,-24.41,-25.65,0,*71
1507961247.49,55512,10.06,74424.0,2.59,-24.35,-25.49,0,*7F
1507961248.71,55513,10.06,74426.0,2.61,-24.15,-25.35,0,*7C
1507961249.97,55514,10.06,74424.5,2.61,-24.21,-25.29,0,*71
1507961251.22,55515,10.06,74424.5,2.59,-24.11,-25.23,0,*72
1507961252.47,55516,10.06,74422.5,2.61,-24.21,-25.45,0,*79
1507961253.7,55517,10.06,74422.3,2.61,-24.21,-25.35,0,*7F
1507961254.95,55518,10.06,74424.8,2.61,-24.15,-25.29,0,*7A
1507961256.2,55519,10.06,74424.5,2.63,-24.21,-25.19,0,*7D
1507961257.47,55520,10.06,74420.5,2.63,-24.15,-25.29,0,*73
1507961258.72,55521,10.06,74416.8,2.63,-24.15,-25.35,0,*7F
1507961260.0,55522,10.06,74420.3,2.63,-24.21,-25.45,0,*7C
1507961261.23,55523,10.06,74420.0,2.65,-24.11,-25.39,0,*73
1507961262.46,55524,10.06,74424.0,2.65,-24.15,-25.39,0,*70
1507961263.71,55525,10.06,74432.3,2.67,-24.11,-25.23,0,*7C
1507961264.95,55526,10.06,74428.5,2.65,-24.31,-25.55,0,*7E
1507961266.19,55527,10.06,74430.5,2.65,-24.25,-25.39,0,*70
1507961267.43,55528,10.06,74424.5,2.65,-24.25,-25.39,0,*7F
1507961268.69,55529,10.06,74426.5,2.65,-24.25,-25.55,0,*74
1507961269.93,55530,10.06,74424.3,2.65,-24.25,-25.39,0,*76
1507961271.16,55531,10.06,74428.3,2.67,-24.05,-25.19,0,*75
1507961272.41,55532,10.06,74428.0,2.67,-24.11,-25.35,0,*7D
1507961273.66,55533,10.06,74430.8,2.67,-23.95,-25.23,0,*70
1507961274.89,55534,10.06,74430.5,2.69,-24.05,-25.35,0,*70
1507961276.12,55535,10.06,74426.8,2.69,-24.05,-25.23,0,*76
1507961277.36,55536,10.06,74428.3,2.69,-24.05,-25.23,0,*75
1507961278.59,55537,10.06,74424.8,2.71,-23.85,-25.13,0,*71
1507961279.79,55538,10.06,74428.0,2.71,-23.89,-25.19,0,*78
1507961281.02,55539,10.06,74426.5,2.71,-24.05,-25.29,0,*79
1507961282.25,55540,10.06,74420.8,2.71,-24.05,-25.29,0,*77
1507961283.49,55541,10.06,74424.0,2.71,-24.21,-25.49,0,*76
1507961284.76,55542,10.06,74426.0,2.73,-24.21,-25.49,0,*77
1507961286.04,55543,10.06,74426.5,2.73,-24.15,-25.45,0,*7D
1507961287.28,55544,10.06,74426.5,2.73,-24.05,-25.19,0,*72
1507961288.54,55545,10.06,74430.0,2.73,-23.99,-25.19,0,*71
1507961289.77,55546,10.06,74424.8,2.73,-24.05,-25.13,0,*7A
1507961291.01,55547,10.06,74430.5,2.73,-24.05,-25.19,0,*71
1507961292.27,55548,10.06,74426.3,2.73,-24.05,-25.29,0,*7D
1507961293.53,55549,10.06,74430.5,2.73,-24.05,-25.29,0,*7C
1507961294.76,55550,10.06,74434.5,2.79,-23.95,-25.23,0,*7A
1507961296.02,55551,10.06,74432.0,2.75,-24.15,-25.45,0,*78
1507961297.22,55552,10.06,74430.0,2.75,-24.05,-25.35,0,*7D
1507961298.43,55553,10.06,74430.8,2.79,-23.89,-25.19,0,*7D
1507961299.66,55554,10.06,74424.8,2.79,-23.95,-25.19,0,*77
1507961300.86,55555,10.06,74430.5,2.79,-23.89,-25.19,0,*7B
1507961302.1,55556,10.06,74424.8,2.79,-24.11,-25.39,0,*7C
1507961303.3,55557,10.06,74426.3,2.79,-24.05,-25.23,0,*73
1507961304.51,55558,10.06,74418.3,2.79,-24.05,-25.19,0,*75
1507961305.72,55559,10.06,74426.5,2.79,-24.05,-25.23,0,*7D
1507961307.01,55560,10.06,74418.3,2.81,-24.21,-25.55,0,*77